Temp
21 21 21 21 21 21 22 22 21 21 21 21 21 21 21 21 21 21 21 21 21 21 21 21 21 21 21 21 21 21 21 21 22 21 21 21 21 21 21 21 20 20 20
21 21 21 21 21 21 22 22 21 21 21 21 21 21 21 21 21 21 21 21 21 21 21 21 21 21 21 21 21 21 21 21 22 22 21 21 21 20 20 20 20 20 20
21 21 21 21 21 21 21 21 21 21 21 21 21 21 21 21 21 21 21 21 21 21 21 21 21 21 21 21 21 22 22 22 22 21 21 21 21 21 20 20 20 20 20
21 21 21 21 21 21 21 21 21 21 21 21 21 21 21 21 21 21 21 21 21 21 21 21 21 21 21 21 21 22 22 22 22 22 22 21 21 20 20 20 20 20 20
22 22 21 21 21 21 21 21 21 21 21 21 21 21 21 21 21 21 21 21 21 21 21 21 21 21 21 21 21 22 22 22 22 22 21 21 20 20 20 20 20 20 20
23 22 22 21 21 21 21 21 21 21 21 21 21 21 21 21 21 21 21 21 21 21 21 21 21 22 22 23 22 22 22 22 23 22 21 21 20 20 20 20 20 20 20
22 21 21 21 20 21 21 21 21 21 21 21 21 21 21 21 21 21 21 21 21 21 21 21 23 23 24 24 23 23 23 22 22 22 21 20 20 20 20 20 20 20 20
22 21 21 21 21 21 21 21 21 21 21 21 21 21 21 21 21 21 21 21 21 21 21 23 24 24 24 24 24 23 23 23 23 22 21 20 20 20 20 20 20 20 19
23 22 21 21 21 21 21 21 21 21 22 22 21 21 22 21 21 21 21 21 21 21 21 24 24 25 24 24 24 24 23 23 23 22 21 20 20 20 20 20 20 20 20
23 23 23 22 22 21 21 21 21 21 22 22 22 21 21 21 21 21 22 22 22 21 22 23 24 25 25 25 25 24 23 23 22 22 21 21 20 19 19 20 21 21 21
24 23 23 22 22 22 21 21 21 22 22 22 22 22 22 22 22 22 23 22 22 21 22 24 24 25 25 25 25 25 24 23 23 24 23 21 21 20 21 21 21 21 21
24 24 23 23 23 23 22 22 22 22 22 22 22 22 22 22 22 23 24 23 23 23 23 23 23 24 24 25 26 26 24 23 24 24 23 22 21 21 22 22 22 22 22
25 24 24 24 23 23 23 22 22 22 22 23 23 23 24 23 24 24 24 24 24 24 23 23 23 23 25 24 24 26 25 25 25 25 24 23 22 22 23 22 22 22 23
24 24 25 25 24 24 23 23 23 23 23 22 23 24 24 23 24 25 24 23 24 24 25 24 24 27 26 26 26 26 26 26 26 26 25 24 24 23 23 23 24 24 23
25 25 25 25 25 25 23 24 21 23 25 24 23 24 24 24 24 24 23 23 25 25 26 26 26 26 26 27 27 28 27 26 27 27 26 25 25 25 24 25 25 24 24
25 25 25 25 25 25 25 24 23 23 24 24 24 24 24 25 25 25 25 25 26 26 26 27 27 27 27 28 27 28 27 26 27 27 27 26 26 26 25 26 25 25 25
25 25 25 25 25 25 26 25 25 24 23 23 24 24 24 25 25 25 24 24 25 26 26 27 26 27 27 28 28 27 27 27 26 27 27 27 27 26 26 26 26 26 26
26 25 25 25 25 25 25 25 25 25 24 24 24 24 25 25 25 24 26 26 24 25 26 26 27 27 27 27 27 27 27 28 27 27 27 27 27 27 27 27 27 27 27
26 26 25 25 25 25 25 25 25 26 25 25 25 25 25 25 25 24 25 24 26 26 26 26 27 28 28 27 28 28 28 28 28 27 27 27 27 27 28 27 27 27 27
27 26 25 26 25 26 25 25 25 25 25 25 25 25 25 25 24 25 25 26 26 26 26 27 27 28 27 28 28 28 28 28 28 28 28 28 27 28 28 28 28 28 28
27 26 26 26 25 25 25 25 25 25 25 25 25 25 25 25 25 24 25 26 26 26 26 26 27 27 27 28 28 28 29 29 29 29 29 28 28 28 28 29 28 28 28
27 26 26 26 26 26 25 25 25 25 25 25 25 25 25 25 25 24 25 26 26 26 25 25 27 26 27 27 27 25 24 27 29 29 29 28 29 29 28 29 29 29 29
26 26 26 26 25 25 25 25 25 25 25 25 25 25 25 25 25 24 25 26 25 25 25 26 26 26 26 26 27 27 22 23 26 29 30 30 30 29 29 29 29 29 29
26 26 25 25 25 24 24 25 25 25 25 25 25 25 25 25 25 25 24 24 24 25 25 26 25 26 26 25 26 26 26 25 22 23 29 27 26 26 26 27 28 29 28
26 25 26 25 25 25 24 24 25 25 25 25 26 25 25 25 25 25 25 24 25 25 26 26 25 26 26 26 26 26 25 23 24 21 19 22 27 25 26 25 26 28 28
25 25 25 25 25 25 24 24 24 25 25 25 25 25 25 25 25 25 25 25 25 25 25 25 25 26 26 26 26 26 26 24 24 23 21 23 21 26 26 27 26 27 28
Height
824 824 825 826 826 827 828 828 829 828 828 829 830 831 832 831 832 833 834 835 836 837 836 837 838 839 839 841 840 840 840 840 841 841 841 842 844 845 845 845 846 846 848
821 824 825 826 827 828 829 829 829 829 830 831 831 831 832 833 834 835 836 837 837 838 839 840 841 841 842 842 842 842 842 842 843 845 845 846 847 848 848 848 847 848 850
821 824 825 826 828 829 830 830 830 831 832 833 834 834 834 836 836 837 838 839 840 841 842 842 843 843 845 844 843 844 844 846 845 847 847 849 850 851 850 850 850 850 852
820 824 826 828 829 830 832 832 833 834 834 836 837 837 838 838 838 838 840 841 841 842 843 844 845 845 847 847 847 846 847 848 847 849 849 850 853 853 853 853 852 853 853
820 824 826 828 830 831 833 833 834 835 837 838 839 840 841 841 842 842 842 843 843 844 844 845 847 847 849 849 848 848 848 849 850 851 852 853 854 855 855 855 856 856 856
819 823 826 829 831 832 833 834 835 836 837 839 840 841 842 842 844 845 847 847 847 847 846 846 848 849 850 850 851 851 851 852 852 853 854 856 856 858 858 858 857 858 858
820 824 827 829 831 833 834 835 837 839 839 841 842 844 845 844 845 847 849 850 849 848 848 848 849 849 850 852 852 853 853 854 854 856 857 858 859 860 859 859 860 859 859
821 826 828 830 832 834 835 837 840 842 843 844 846 848 849 850 849 848 850 851 852 851 850 849 849 851 853 854 855 856 857 856 856 858 859 860 861 860 860 861 861 860 860
824 827 829 831 833 834 837 839 840 842 843 845 846 848 850 852 852 853 851 852 852 852 851 851 851 852 854 856 857 858 858 859 859 860 860 861 861 862 862 862 862 861 860
824 827 832 832 832 835 838 841 844 845 847 848 850 852 853 854 855 854 854 853 853 853 853 853 852 853 856 858 859 859 859 861 861 860 860 860 861 863 863 862 861 861 860
825 828 832 833 834 836 839 843 844 846 848 851 854 855 854 856 856 856 856 856 857 857 856 857 856 856 857 858 859 860 861 861 861 860 860 861 862 863 862 862 861 861 860
824 829 834 835 835 837 840 843 845 847 849 850 853 855 857 858 857 859 860 860 860 860 860 861 861 860 860 859 858 860 861 860 860 861 861 861 862 862 862 862 862 861 861
825 831 834 834 836 837 841 845 845 849 852 851 851 854 858 859 862 862 863 862 862 861 862 864 860 859 858 859 859 861 862 861 861 861 861 861 861 861 861 861 861 862 861
825 831 833 835 836 840 845 847 850 850 851 852 853 856 858 861 864 864 865 865 864 862 862 862 861 857 858 859 859 861 863 862 861 861 860 861 861 861 861 861 861 861 861
824 830 833 835 838 838 844 847 850 852 850 855 856 858 860 864 862 865 863 864 864 862 863 862 860 859 859 861 861 861 861 863 862 861 861 861 862 862 862 862 861 862 861
825 830 833 836 837 837 842 846 852 851 854 856 858 859 861 865 864 865 865 863 862 862 863 863 864 863 863 863 863 862 863 863 864 863 862 862 863 864 864 863 863 862 861
826 830 833 836 840 841 844 847 851 855 856 857 858 860 863 867 866 868 870 863 863 864 864 864 865 865 864 864 864 863 863 864 864 865 864 864 864 864 865 865 864 862 861
825 830 833 836 840 844 846 849 850 853 855 857 859 863 864 865 867 868 865 864 866 866 863 862 862 862 863 863 864 864 864 865 866 866 866 866 866 865 865 866 865 863 861
825 829 835 838 841 844 848 850 852 854 857 859 860 862 863 864 865 865 863 863 863 864 862 862 862 862 864 865 865 865 866 866 867 867 867 867 867 867 866 866 866 864 862
825 830 835 837 842 843 848 851 853 855 858 860 861 863 864 864 864 863 863 862 862 863 863 863 864 861 862 864 864 865 865 866 867 867 868 867 866 866 864 864 864 863 863
826 831 835 837 842 845 848 851 852 855 857 860 862 863 863 863 863 863 861 863 864 865 862 863 863 863 862 864 864 865 865 866 865 866 868 868 867 866 865 864 863 862 862
825 831 835 838 842 846 848 850 852 855 857 859 861 863 862 863 863 863 862 864 864 864 864 864 865 865 865 865 866 867 868 867 867 867 868 868 869 868 868 866 864 863 861
825 830 835 839 842 845 847 849 850 853 857 859 861 862 862 863 863 865 864 865 866 866 866 865 867 868 868 867 868 869 873 873 868 866 867 867 869 869 867 867 865 864 863
822 826 833 838 841 845 846 848 850 852 855 858 860 860 862 862 863 865 868 868 867 867 868 868 871 868 869 867 870 870 871 874 873 871 867 871 874 871 869 867 864 863 865
820 826 829 835 839 844 847 849 850 852 855 856 858 859 861 863 863 864 865 867 868 867 869 870 870 870 872 874 870 870 870 876 871 871 875 870 869 872 870 869 861 863 865
819 825 830 832 837 842 846 848 850 852 855 855 857 859 860 861 862 863 865 865 868 870 871 872 873 871 872 874 875 873 872 871 872 869 870 866 876 872 870 865 860 859 862
Wind_Speed
20 21 20 18 17 16 16 16 16 17 17 19 19 21 21 23 25 28 27 24 23 21 22 22 21 21 21 21 20 20 21 22 21 19 19 18 16 15 17 17 17 17 17
25 21 20 19 18 17 17 17 18 18 18 19 19 20 21 23 24 22 22 22 21 21 21 21 21 20 20 20 20 19 21 24 23 21 21 20 19 19 17 17 18 18 16
26 23 20 18 18 18 17 17 17 17 18 19 20 21 23 20 22 21 22 21 21 20 20 20 19 19 20 20 18 17 16 19 19 21 22 21 18 16 17 17 17 17 16
26 22 22 19 18 18 17 17 16 16 16 18 19 20 20 21 21 22 21 20 20 20 18 18 17 18 19 20 17 15 20 24 22 20 19 18 16 17 17 17 17 16 15
25 21 19 20 18 16 17 16 16 16 16 17 18 18 18 19 19 19 19 19 18 18 18 17 16 17 19 18 17 16 20 19 19 19 19 18 17 16 16 15 16 15 15
25 22 19 18 17 17 16 16 16 15 16 18 18 19 18 19 18 16 15 16 17 16 16 16 15 16 18 17 16 14 15 19 17 17 17 16 15 14 15 15 15 14 14
25 23 20 19 17 16 16 15 15 15 16 18 17 17 18 18 17 17 16 15 15 16 14 14 15 17 19 19 22 22 21 19 15 17 18 17 15 14 14 15 13 13 12
25 22 20 19 17 16 16 16 15 15 16 17 16 15 16 16 17 18 17 16 15 13 13 15 17 18 18 18 18 20 18 15 12 13 14 14 14 13 13 12 11 10 10
23 21 21 20 17 16 17 17 18 17 18 18 17 16 17 18 17 18 18 16 14 13 13 16 17 18 17 17 18 19 19 15 16 16 15 15 13 12 11 10 11 9 9
23 24 17 18 18 18 16 16 17 17 16 16 15 15 15 15 16 16 16 15 14 13 13 15 18 19 18 16 16 14 17 17 17 12 13 12 11 10 10 9 8 8 8
26 20 17 18 18 14 17 17 18 17 17 16 13 12 14 16 16 12 12 12 10 9 10 12 15 16 15 13 10 10 16 14 11 11 12 11 10 9 9 9 8 8 8
23 20 18 19 16 16 16 19 19 19 18 14 14 13 11 13 11 12 10 10 9 8 8 8 8 7 5 6 9 11 17 16 8 9 11 11 10 9 8 8 7 7 7
25 21 22 18 20 18 21 21 21 18 16 15 11 13 14 13 10 11 11 9 6 4 2 4 5 5 5 10 9 8 15 10 8 9 10 10 9 8 8 7 7 6 6
26 27 24 18 22 14 17 12 19 19 12 15 17 15 11 13 11 11 8 2 1 2 3 5 10 12 5 6 9 10 15 9 8 8 9 8 8 8 7 7 7 6 5
27 30 22 18 11 15 20 18 20 20 20 19 18 18 12 11 10 10 7 4 8 3 4 6 7 6 2 7 11 11 12 12 7 8 9 9 8 8 8 7 6 6 5
28 26 22 18 11 17 16 22 21 19 16 20 17 12 11 11 14 13 12 5 4 6 3 7 6 4 5 7 11 13 7 7 4 10 11 11 10 9 8 7 6 5 5
30 26 24 21 20 20 18 17 21 21 15 18 15 12 9 10 10 11 4 10 2 2 2 2 6 8 7 7 10 13 9 9 5 6 11 10 10 9 7 6 5 5 4
30 24 24 18 16 17 16 15 11 11 22 18 15 12 12 10 9 7 4 8 4 6 11 11 11 5 11 11 11 10 10 8 7 5 7 6 7 7 8 6 5 4 3
26 25 21 20 19 18 15 14 15 18 16 15 14 7 9 9 4 2 8 3 3 6 5 10 4 12 4 11 9 12 11 9 8 5 6 5 4 4 4 5 1 1 0
22 22 21 20 19 15 16 12 17 15 13 12 14 10 9 5 4 9 7 6 4 6 7 10 8 12 9 4 3 9 12 8 7 10 12 8 11 6 7 2 5 7 6
23 28 27 23 21 19 13 14 14 12 12 13 11 11 8 8 4 6 5 7 5 6 9 9 11 14 12 6 8 2 10 8 11 11 8 11 11 12 10 3 4 4 3
24 26 27 23 20 16 13 11 11 15 17 15 13 11 8 7 6 3 2 4 13 4 5 5 10 13 4 5 5 4 3 3 10 13 13 17 12 8 14 11 7 8 3
30 28 28 22 19 13 10 13 14 11 14 14 13 10 9 7 6 5 1 2 4 1 4 4 8 9 10 8 7 5 2 2 3 8 6 7 9 4 14 13 9 10 7
30 32 26 21 17 13 9 14 20 19 15 14 14 13 10 5 7 3 5 2 5 5 2 3 5 9 10 10 3 6 1 11 3 5 6 11 21 22 17 14 16 13 7
33 31 30 23 21 16 12 9 14 17 13 9 10 16 13 9 6 4 6 1 3 4 3 4 6 8 10 5 17 12 2 21 21 7 2 8 18 25 15 23 17 11 12
31 31 29 28 24 19 18 14 12 12 10 10 16 17 13 14 12 10 9 4 4 2 2 3 1 5 8 7 14 9 8 9 13 7 2 5 8 23 23 11 9 18 11
Wind_Direction
128 125 124 119 116 114 114 110 109 104 100 98 99 100 98 101 101 102 101 100 97 95 92 90 88 87 85 86 88 87 85 85 86 90 93 92 94 96 92 92 93 92 90
131 127 127 122 118 116 114 110 107 105 104 103 101 101 102 104 105 103 102 103 99 97 93 94 92 90 89 91 91 94 97 95 87 90 90 87 90 96 98 97 95 95 94
131 131 128 121 121 116 113 111 111 110 109 108 104 106 104 104 102 103 101 100 100 100 97 94 93 97 97 93 91 95 108 100 95 95 90 91 92 97 97 97 97 98 95
128 133 125 125 124 123 117 118 113 110 110 108 107 109 107 106 104 104 101 102 100 101 101 98 97 103 103 96 97 87 91 94 102 106 97 98 96 97 100 99 97 96 95
134 133 130 129 121 120 121 119 114 112 115 114 111 112 109 109 108 108 107 102 98 101 99 100 98 106 105 104 95 86 84 98 100 99 98 100 99 96 98 99 100 100 97
128 128 126 124 124 119 121 119 118 119 120 119 121 119 117 113 109 108 106 103 102 103 99 98 105 115 114 107 99 93 108 107 99 103 106 104 104 99 100 102 98 102 99
123 123 124 122 124 122 122 123 119 117 119 122 121 118 120 117 113 111 109 105 106 103 105 106 109 116 113 104 94 88 125 116 103 105 107 109 107 107 102 103 105 100 94
127 121 119 118 118 119 122 124 119 113 117 121 120 120 118 113 111 115 116 109 108 110 108 107 107 117 125 112 103 105 120 124 119 121 119 113 110 104 102 100 99 93 91
125 118 120 119 120 121 124 125 123 121 123 131 129 127 125 123 114 113 119 117 119 118 113 109 110 119 131 121 110 113 121 119 117 116 112 111 113 110 112 109 103 97 93
123 120 119 121 126 126 126 125 123 124 121 127 132 131 127 123 121 120 121 123 124 126 121 117 117 114 120 122 117 114 127 132 129 127 119 114 114 113 106 105 104 98 91
131 130 133 125 129 130 130 127 128 124 118 111 122 132 132 126 126 125 122 120 121 121 116 110 120 124 123 120 118 127 133 147 119 116 126 126 119 116 113 108 102 95 88
133 131 141 141 141 128 133 130 128 129 127 130 138 142 143 135 136 133 125 114 111 115 126 121 106 125 146 151 121 112 144 152 101 119 124 126 124 124 115 109 102 96 89
138 139 147 148 152 143 135 136 140 134 134 137 157 156 133 142 138 140 134 124 127 148 188 155 142 230 217 239 234 144 138 145 106 115 129 132 130 124 119 112 108 101 97
148 142 144 148 161 164 133 135 137 129 140 148 144 157 156 156 158 143 139 166 248 95 144 150 156 80 94 204 221 221 156 157 115 120 126 128 132 130 125 118 113 107 98
129 148 148 149 156 156 164 150 132 109 120 145 151 157 151 163 192 175 152 129 189 179 96 136 162 195 248 72 120 113 131 162 103 109 120 129 129 129 126 120 115 108 99
135 142 147 136 92 165 155 146 143 136 135 135 141 125 135 134 140 151 136 150 130 130 98 145 137 182 149 118 132 123 120 104 146 99 115 121 125 126 123 118 111 104 90
143 146 152 131 129 135 140 150 140 153 147 152 117 114 148 120 110 139 155 226 199 101 323 239 252 273 187 143 129 156 118 168 144 155 114 118 126 127 123 115 110 99 78
144 149 142 138 144 137 131 136 159 146 148 140 134 131 151 170 154 76 128 161 107 57 321 311 297 287 217 164 164 155 165 147 161 219 204 155 128 130 123 125 125 113 78
144 143 150 148 148 148 143 145 148 145 153 155 140 149 170 180 113 11 179 142 188 20 41 15 27 55 203 220 201 185 182 148 151 166 198 223 209 228 141 146 109 297 203
142 148 161 147 147 159 150 153 149 149 151 146 163 132 132 142 108 99 130 126 109 55 73 9 24 30 3 94 203 192 201 191 188 199 185 211 202 221 214 219 268 281 266
138 157 153 148 149 153 159 146 155 151 158 150 152 134 144 130 159 92 71 114 148 81 53 11 28 21 21 28 41 121 197 181 202 216 208 221 217 210 226 227 262 274 286
153 158 150 153 161 158 158 148 157 142 151 154 151 158 145 151 126 88 63 119 137 123 16 7 22 2 17 37 55 24 0 267 242 240 233 233 238 242 230 248 262 272 317
147 155 160 161 168 163 167 168 157 146 160 156 161 162 160 157 145 114 98 99 142 56 333 29 351 35 19 43 69 83 26 236 298 220 208 194 249 278 242 239 263 269 301
160 158 165 172 174 158 182 166 144 156 160 182 178 181 183 180 172 148 167 129 211 235 42 41 40 43 49 46 13 35 342 49 49 348 12 33 28 4 12 346 314 256 281
167 170 169 171 179 181 182 191 197 172 176 191 180 184 175 190 209 192 181 217 192 184 161 81 16 39 32 107 54 24 154 81 69 88 3 334 355 353 13 5 42 58 8
170 173 176 174 177 176 178 179 180 188 180 167 164 163 187 193 186 187 194 192 213 234 162 330 31 25 23 67 50 25 52 99 116 110 140 266 359 329 316 343 345 30 43